Regional Weather Roundup
Issued by NWS

Home | Current Version | Previous Version | Graphics & Text | Print | Product List | Glossary On
Versions: 1 2 3 4 5 6 7 8 9 10 11 12 13 14 15 16 17 18 19 20 21 22 23 24 25 26 27 28 29 30 31 32 33 34 35 36 37 38 39 40 41 42 43 44 45 46 47 48 49 50
000
ASUS43 KMKX 251611
RWRWI

WISCONSIN REGIONAL WEATHER ROUNDUP
NATIONAL WEATHER SERVICE MILWAUKEE/SULLIVAN WI
1100 AM CDT MON SEP 25 2017

NOTE: "FAIR" INDICATES FEW OR NO CLOUDS BELOW 12,000 FEET WITH NO
SIGNIFICANT WEATHER AND/OR OBSTRUCTIONS TO VISIBILITY.

WIZ001-002-006>008-014>016-023>028-251700-
NORTHWEST WISCONSIN

CITY           SKY/WX    TMP DP  RH WIND       PRES   REMARKS
SUPERIOR ARPT  CLOUDY    57  53  85 NW6       30.03R
ASHLAND        CLOUDY    64  59  83 NW7       30.01R
HAYWARD        CLOUDY    62  59  90 NW5       30.00S FOG
SIREN          CLOUDY    57  56  95 NW6       30.03R FOG
CUMBERLAND     CLOUDY    63  61  94 NW5       30.00R
RICE LAKE      CLOUDY    69  65  85 CALM      30.00S
CHETEK         PTSUNNY   73  66  81 CALM      29.98R
LADYSMITH      CLOUDY    75  64  70 CALM      30.00S
EAU CLAIRE     PTSUNNY   76  64  66 NE5       29.95F
MENOMONIE      MOSUNNY   74  66  75 CALM      29.97F
NEW RICHMOND   CLOUDY    62  61  95 N9        30.00S
OSCEOLA        CLOUDY    60  60 100 N7        30.03F
$$

WIZ003>005-009-010-017-018-251700-
NORTH CENTRAL WISCONSIN

CITY           SKY/WX    TMP DP  RH WIND       PRES   REMARKS
MANITOWISH WTR NOT AVBL
ARBOR VITAE    MOSUNNY   77  67  71 NW3       30.00F
WOODRUFF       MOSUNNY   77  67  71 NW3       30.00F
RHINELANDER    SUNNY     76  65  68 S5        30.02S
EAGLE RIVER    SUNNY     76  62  61 W3        30.01S
LAND O LAKES   SUNNY     75  63  66 NW3       30.03S
PHILLIPS       CLOUDY    73  65  75 CALM      29.99F
TOMAHAWK       SUNNY     74  63  67 CALM      30.01S
MEDFORD        MOSUNNY   75  64  69 E5        29.99F
MERRILL        SUNNY     76  64  67 CALM      30.00S
$$

WIZ029-030-035-036-043>047-251700-
CENTRAL WISCONSIN

CITY           SKY/WX    TMP DP  RH WIND       PRES   REMARKS
WAUSAU         SUNNY     77  64  64 S3        29.98S
MOSINEE        MOSUNNY   79  64  61 S6        30.00F HX  81
MARSHFIELD     SUNNY     78  63  59 VRB3      29.98S HX  80
STEVENS POINT  SUNNY     79  62  57 S6        29.99F HX  80
WAUPACA        SUNNY     83  64  54 CALM      29.99S HX  84
WAUTOMA        NOT AVBL
WISC RAPIDS    SUNNY     81  65  58 S7        29.99F HX  83
CAMP DOUGLAS   MOSUNNY   81  64  57 S5        29.97S HX  82
$$

WIZ011>013-019>022-031-037>040-048>050-251700-
NORTHEAST WISCONSIN

CITY           SKY/WX    TMP DP  RH WIND       PRES   REMARKS
ANTIGO         MOSUNNY   77  64  63 S5        30.01F
SHAWANO        MOSUNNY   81  63  54 SW5       29.98F HX  82
OCONTO         MOSUNNY   75  65  70 CALM      29.98F
STURGEON BAY   CLOUDY    79  64  60 S6        30.00F HX  81
GREEN BAY      SUNNY     83  66  56 VRB6      29.99S HX  85
MANITOWOC      MOSUNNY   77  67  71 SE6       30.00F
APPLETON       PTSUNNY   81  57  44 VRB3      29.98F HX  81
CLINTONVILLE   PTSUNNY   81  63  54 CALM      29.99S HX  82
OSHKOSH        SUNNY     82  65  56 CALM      29.99S HX  84
$$

WIZ032>034-041-042-053>061-251700-
SOUTHWEST WISCONSIN

CITY           SKY/WX    TMP DP  RH WIND       PRES   REMARKS
LA CROSSE      MOSUNNY   80  64  58 S8        29.95S HX  82
SPARTA         MOSUNNY   81  64  57 SE3       29.96S HX  82
VIROQUA        MOSUNNY   80  65  61 S6        29.98S HX  82
BOSCOBEL       SUNNY     83  65  54 CALM      29.96F HX  85
PRAIRIE DU CHI MOSUNNY   82  64  54 SW9       29.96S HX  83
PLATTEVILLE    SUNNY     85  64  50 S3        29.99F HX  86
$$

WIZ056-057-062-063-064-067-068-251700-
SOUTH CENTRAL WISCONSIN

CITY           SKY/WX    TMP DP  RH WIND       PRES   REMARKS
REEDSBURG      MOSUNNY   82  65  56 S5        29.98F HX  83
BARABOO/DELLS  SUNNY     82  61  49 SW5       29.99S HX  82
LONE ROCK      SUNNY     83  65  54 SE3       29.97F HX  85
MINERAL POINT  SUNNY     82  66  57 CALM      30.00F HX  85
MADISON        SUNNY     82  63  52 SW5       29.99S HX  83
MIDDLETON      SUNNY     85  63  47 SW3       30.00S HX  86
WATERTOWN      SUNNY     81  64  55 S3        30.00S HX  83
MONROE         SUNNY     84  59  42 SW8       30.00S HX  84
JANESVILLE     SUNNY     82  61  47 S6        29.99F HX  83
$$

WIZ051-052-058>065-066-070>072-251700-
SOUTHEAST WISCONSIN

CITY           SKY/WX    TMP DP  RH WIND       PRES   REMARKS
MILWAUKEE      MOSUNNY   84  64  50 SE7       30.00F HX  85
WAUKESHA       MOSUNNY   82  59  44 SW5       30.02F HX  82
MILWAUKEE/TIMM SUNNY     86  54  32 SW5       30.01S HX  84
RACINE         SUNNY     81  65  58 SE8       30.02F HX  83
BURLINGTON     SUNNY     86  63  46 S5        30.00F HX  87
KENOSHA        MOSUNNY   85  62  46 VRB3      30.01F HX  85
FOND DU LAC    MOSUNNY   83  62  49 VRB5      30.00S HX  84
SHEBOYGAN      SUNNY     85  66  53 S3        29.99F HX  87
WEST BEND        N/A     82  55  39 SW5       30.00S HX  82
JUNEAU         SUNNY     79  63  57 S3        30.02S HX  81
$$

LSZ147-162-251700-
LAKE SUPERIOR

STATION/POSITION TIME  TEMP    WIND        PRES    WAVE
                       AIR SEA DIR/SP/G            HT/PER
                 (UTC) (F)     (DEG/KT/KT) (MB)    (FT/S)
W MID LAKE BUOY  1550   58 56  270/  8/  8 1014.8R   1/ 3
DEVILS ISLAND    1600   60     280/  7/  8 1016.1R
PORT WING        1340   62     270/  8/ 10 1015.6
SAXON HARBOR     1540   64     330/  6/  7 1015.2R
$$

LMZ867-665-643>646-251700-
LAKE MICHIGAN

STATION/POSITION TIME  TEMP    WIND        PRES    WAVE
                       AIR SEA DIR/SP/G            HT/PER
                 (UTC) (F)     (DEG/KT/KT) (MB)    (FT/S)
S GREEN BAY BUOY 1500   71 69  220/  2/  4 1015.5
N MID LAKE BUOY  1550   69 67  190/ 12/ 14 1016.3S   2/ 4
NORTHPORT PIER   1540   72     150/  5/  8 1015.6S
KEWAUNEE LAKESHO 1542   66     160/  6/  7 1015.1F
SHEBOYGAN LAKESH 1600   71     170/ 11/ 11 1015.3R
PORT WASHINGTON  1530   72     170/  2/  3 1016.9S
ATWATER BUOY     1509   69 63  180/  6/  8 1016.5R
MILWAUKEE LAKESH 1530   68     140/ 10/ 11   N/A
S MID LAKE BUOY  1550   72 71  150/  8/ 10 1016.6F   1/ 3
KENOSHA   LAKESH 1600   73     160/ 10/ 10 1015.9
$$

TC  - TEMPERATURE IN CELSIUS
VSB - VISIBILITY IN STATUTE MILES
WCI - WIND CHILL INDEX
HX  - HEAT INDEX





USA.gov is the U.S. government's official web portal to all federal, state and local government web resources and services.